Location: Unspecified
(34.1357°N, 0.0000°E)
Time: 00:29:59
(UTC+00:00)

RS-15 - Visible Passes

Search period start: 04 April 2026 00:00
Search period end: 14 April 2026 00:00
Orbit: 1893 x 2151 km, 64.8° (Epoch: 29 March)

Date Brightness Start Highest point End Pass type
(mag) Time Alt. Az. Time Alt. Az. Time Alt. Az.
4 Apr 7.9 02:05:21 10° NNW 02:17:06 84° WSW 02:29:18 10° SSE visible
4 Apr 9.2 04:21:09 10° WNW 04:36:31 - SW 04:25:17 16° W visible
4 Apr 9.9 18:40:15 10° W 18:48:38 24° NW 18:57:15 10° NNE visible
4 Apr 10.1 21:04:55 10° NNW 21:07:23 11° N 21:09:53 10° NNE visible
4 Apr 9.5 23:17:51 10° NNW 23:26:28 23° NE 23:33:35 14° ENE visible
5 Apr 8.0 01:29:17 10° NNW 01:41:02 78° ENE 01:41:12 78° ENE visible
5 Apr 9.0 03:43:28 10° NW 04:04:22 - SSW 03:48:49 22° WNW visible
5 Apr 10.1 20:26:36 10° NNW 20:29:48 11° N 20:33:01 10° N visible
5 Apr 9.7 22:42:01 10° N 22:49:26 18° NNE 22:56:59 10° ENE visible
6 Apr 8.3 00:53:18 10° NNW 01:04:51 61° ENE 01:05:13 61° ENE visible
6 Apr 8.8 03:06:31 10° NW 03:12:53 30° WNW 03:12:53 30° WNW visible
6 Apr 10.1 19:47:47 10° NW 19:52:17 13° NNW 19:56:53 10° N visible
6 Apr 9.9 22:06:10 10° N 22:12:11 15° NNE 22:18:18 10° NE visible
7 Apr 8.6 00:17:23 10° NNW 00:28:33 48° NE 00:29:32 47° ENE visible
7 Apr 8.6 02:29:55 10° NW 02:37:13 38° WNW 02:37:13 38° WNW visible
7 Apr 10.0 19:09:03 10° WNW 19:14:56 15° NNW 19:20:56 10° N visible
7 Apr 9.9 21:30:14 10° N 21:34:47 13° NNE 21:39:23 10° NE visible
7 Apr 8.9 23:41:30 10° NNW 23:52:04 38° NE 23:54:02 36° ENE visible
8 Apr 8.4 01:53:34 10° NW 02:01:43 49° WNW 02:01:43 49° WNW visible
8 Apr 10.0 20:54:03 10° N 20:57:14 11° N 21:00:27 10° NNE visible
8 Apr 9.2 23:05:39 10° NNW 23:15:26 30° NE 23:18:39 27° ENE visible
9 Apr 8.2 01:17:23 10° NNW 01:26:20 60° NW 01:26:20 60° NW visible
9 Apr 9.6 03:33:31 10° WNW 03:34:02 11° WNW 03:34:02 11° WNW visible
9 Apr 10.1 20:17:08 10° NNW 20:19:38 11° N 20:22:09 10° NNE visible
9 Apr 9.4 22:29:50 10° NNW 22:38:37 24° NE 22:43:21 19° ENE visible
10 Apr 8.2 00:41:18 10° NNW 00:51:04 67° N 00:51:04 67° N visible
10 Apr 9.3 02:55:41 10° NW 02:58:46 17° WNW 02:58:46 17° WNW visible
10 Apr 10.1 19:38:58 10° NNW 19:42:02 11° N 19:45:08 10° N visible
10 Apr 9.6 21:54:00 10° NNW 22:01:36 19° NNE 22:08:08 12° ENE visible
11 Apr 8.3 00:05:18 10° NNW 00:15:51 62° NE 00:15:51 62° NE visible
11 Apr 9.1 02:18:39 10° NW 02:23:33 25° WNW 02:23:33 25° WNW visible
11 Apr 10.0 19:00:12 10° NW 19:04:31 13° NNW 19:08:54 10° N visible
11 Apr 9.8 21:18:09 10° N 21:24:24 15° NNE 21:30:45 10° ENE visible
11 Apr 8.5 23:29:22 10° NNW 23:40:37 50° NE 23:40:41 50° NE visible
12 Apr 8.8 01:42:01 10° NW 01:48:24 34° WNW 01:48:24 34° WNW visible
12 Apr 9.8 20:42:14 10° N 20:47:00 13° NNE 20:51:52 10° NE visible
12 Apr 8.8 22:53:30 10° NNW 23:04:11 39° NE 23:05:35 38° ENE visible
13 Apr 8.5 01:05:37 10° NW 01:13:18 45° WNW 01:13:18 45° WNW visible
13 Apr 9.9 20:06:06 10° N 20:09:29 11° N 20:12:55 10° NNE visible
13 Apr 9.1 22:17:38 10° NNW 22:27:34 31° NE 22:30:32 28° ENE visible
